Preview of NWS' New Version of Forecast
This preview is not operational and should not be used for support decisions.

Regional Weather Roundup (RWR)

Issued by National Weather Service (NWS)

                            
000
ASUS45 KCYS 200910
RWRWY 

WYOMING REGIONAL WEATHER ROUNDUP
NATIONAL WEATHER SERVICE CHEYENNE WY
200 AM MST WED FEB 20 2019

NOTE:  "FAIR" INDICATES FEW OR NO CLOUDS BELOW 12,000 FEET
WITH NO SIGNIFICANT WEATHER AND/OR OBSTRUCTIONS TO VISIBILITY.

WYZ001-201000-
YELLOWSTONE NATIONAL PARK
  
CITY           SKY/WX    TMP DP  RH WIND       PRES   REMARKS
LK YELLOWSTONE   N/A     -4  -9  79 CALM      29.55F                  
W YELLOWSTONE  NOT AVBL                                               

$$
WYZ002>013-054>058-071-098>099-201000-
NORTHERN WYOMING
  
CITY           SKY/WX    TMP DP  RH WIND       PRES   REMARKS
JACKSON        CLOUDY     1  -3  83 NE6       29.63  FOG     WCI -10  
CODY           FAIR      12  -5  46 SW7       29.59F WCI   1          
GREYBULL       FAIR      -2  -4  91 CALM      29.67F                  
WORLAND        FAIR       2  -1  88 VRB6      29.66F WCI  -9          
SHERIDAN       FAIR      -3  -9  75 CALM      29.62F                  
BUFFALO        FAIR       5  -3  69 W6        29.54F WCI  -6          
GILLETTE       FAIR       4  -1  80 CALM      29.59F                  
HULETT         LGT SNOW  12   9  85 MISG      29.60                   
NEWCASTLE        N/A      3   0  85 N5        29.61  WCI  -6          

$$
WYZ014>020-022>026-101>103-201000-
CENTRAL WYOMING
  
CITY           SKY/WX    TMP DP  RH WIND       PRES   REMARKS
BIG PINEY      CLOUDY   -16 -21  78 CALM      29.62F HAZE             
PINEDALE       CLOUDY   -13 -18  77 W5        29.61  WCI -25          
DUBOIS         PTSUNNY    1  -8  66 NW15      29.51  WCI -18          
LANDER         FAIR       9  -5  53 CALM      29.57F                  
RIVERTON       FAIR       8  -5  55 W14       29.57F WCI  -8          
CASPER         FAIR       9   2  73 SW15      29.57F WCI  -8          
DOUGLAS        FAIR       8   0  69 VRB5      29.57F WCI   0          

$$
WYZ021-027>030-104>119-201000-
SOUTHERN WYOMING
  
CITY           SKY/WX    TMP DP  RH WIND       PRES   REMARKS
EVANSTON       FAIR       4  -1  80 SW21      29.63  HAZE    WCI -17  
KEMMERER       LGT SNOW   3   0  85 SW10      29.59  WCI -12          
ROCK SPRINGS   FAIR       3  -2  79 W21       29.61F WCI -18          
DIXON          CLOUDY     9   4  82 S9        29.68F WCI  -4          
RAWLINS        CLOUDY     4  -2  76 SW18G25   29.58F WCI -16          
SARATOGA       CLOUDY     5   1  85 SW8       29.60F FOG     WCI  -8  
LARAMIE        FAIR       0  -9  65 NW8       29.51F WCI -14          
CHEYENNE       FAIR      10  -2  58 W12G23    29.54F WCI  -5          
TORRINGTON     CLOUDY     6   6 100 CALM      29.62F                  
PINE BLUFFS    FAIR       0  -6  78 MISG      29.60F                  

$$